COSMOS 249 DEB, 3583

Orbit data source: Space-Track

COSMOS 249 DEB, 3583 is space debris in LEO originally from a launch on Sun, 20 Oct 1968 UTC launched from the Tyuratam Missile And Space Complex (TTMTR). Debris objects in space refer to the collection of defunct objects orbiting the Earth. Examples of debris include non-operational satellites, rocket bodies, and fragments generated from explosions, collisions, or faulty payload assembly.

Loading next visibility...
Identifier
3583, 1968-091R
Orbit
LEO
Country
Flag of CISCIS
Related business
Manufacturer
Unknown
Mission
Spacecraft
Bus & Motor
Unknown
Mass
Unknown
Launch date (UTC)
1968-10-20 (57 years ago)
Launch vehicle
Unknown
Launch site
Tyuratam Missile And Space Complex (TTMTR)
Object type
Payload
Rocket body
Debris
Shape & HBR
Unknown shape, 0.1 m
Radar Cross Section
Small (<0.1 m²)

Expand to show TLE details & history
Last TLE update: 19 hours ago

TLE from 19 hours ago
0 COSMOS 249 DEB
1 03583U 68091R   25348.04452679  .00001068  00000-0  15539-2 0  9992
2 03583  62.0787 254.0259 0708907  99.6447 268.5299 12.85672793660416
Epoch: 2025-12-14T01:04Z
TLE epoch observation values (Epoch: 2025-12-14T01:04:07.114Z)
Latitude
0.00001°
Longitude
155.03317°
Altitude
1,372.791 km
Speed
7.149 km/s
True Right ascension
16h 56m 06s
True Declination
0° 00' 00"
Sunlit
Object was in daylight at epoch
Visualization orbit readout
Latitude
Unknown
Longitude
Unknown
Altitude
Unknown
Speed
Unknown
Apparent Right ascension
Unknown
Apparent Declination
Unknown
Sunlit
N/A
Visualization observer readout
Local Sidereal Time
19:01:47
Azimuth
Unknown
Elevation
Unknown
Doppler factor
Unknown
Orbital elements
Apogee altitude
1,863.332 km
Perigee altitude
772.196 km
Semi-major axis
7,695.901 km
Eccentricity
0.07089
Inclination
62.0787°
RAAN
254.0259°
Arg. of periapsis
99.6447°
True anomaly
260.45433°
Mean anomaly
268.5299°
Eccentric anomaly
264.48695°
Mean motion
3.2148 °/min
Orbital period
111.98 mins
BSTAR
0.0015539
Loading maneuver chart data...
Computing Atmospheric mass density...
Loading historical data...
Loading historical data...
Loading historical data...
Loading historical data...
Loading historical data...
Loading historical data...
Loading historical data...

Documentation

Showing up to 5 results
|